TimeEDT,TemperatureF,Dew PointF,Humidity,Sea Level PressureIn,VisibilityMPH,Wind Direction,Wind SpeedMPH,Gust SpeedMPH,PrecipitationIn,Events,Conditions,WindDirDegrees,DateUTC
12:15 AM,73.4,68.0,83,29.93,10.0,Calm,Calm,-,N/A,,Scattered Clouds,0,2013-07-22 04:15:00
12:35 AM,73.4,68.0,83,29.91,10.0,SE,3.5,-,N/A,,Scattered Clouds,130,2013-07-22 04:35:00
12:55 AM,73.4,68.0,83,29.91,10.0,ESE,3.5,-,N/A,,Clear,120,2013-07-22 04:55:00
1:15 AM,73.4,68.0,83,29.92,10.0,Calm,Calm,-,N/A,,Scattered Clouds,0,2013-07-22 05:15:00
1:35 AM,73.4,68.0,83,29.91,10.0,East,3.5,-,N/A,,Mostly Cloudy,100,2013-07-22 05:35:00
1:55 AM,73.4,68.0,83,29.92,10.0,Calm,Calm,-,N/A,,Mostly Cloudy,0,2013-07-22 05:55:00
2:15 AM,71.6,66.2,83,29.91,10.0,NNE,8.1,-,N/A,,Overcast,20,2013-07-22 06:15:00
2:35 AM,71.6,66.2,83,29.91,10.0,NE,9.2,-,N/A,,Overcast,40,2013-07-22 06:35:00
2:55 AM,69.8,64.4,83,29.91,10.0,NE,8.1,18.4,N/A,,Overcast,50,2013-07-22 06:55:00
3:15 AM,69.8,64.4,83,29.91,10.0,ENE,5.8,-,N/A,,Overcast,60,2013-07-22 07:15:00
3:35 AM,69.8,64.4,83,29.90,10.0,NE,5.8,-,N/A,Rain,Light Rain,50,2013-07-22 07:35:00
3:55 AM,68.0,64.4,88,29.91,10.0,NE,8.1,-,N/A,,Overcast,50,2013-07-22 07:55:00
4:15 AM,68.0,64.4,88,29.90,10.0,NE,8.1,-,N/A,Rain,Light Rain,40,2013-07-22 08:15:00
4:35 AM,68.0,64.4,88,29.90,5.0,NE,5.8,-,0.04,Rain,Heavy Rain,40,2013-07-22 08:35:00
4:55 AM,66.2,64.4,94,29.90,7.0,ENE,5.8,-,0.06,Rain,Light Rain,60,2013-07-22 08:55:00
5:15 AM,66.2,64.4,94,29.91,1.0,NNE,3.5,-,0.24,Rain,Heavy Rain,30,2013-07-22 09:15:00
5:35 AM,64.4,64.4,100,29.90,2.0,NE,10.4,-,0.69,Rain,Heavy Rain,50,2013-07-22 09:35:00
5:55 AM,64.4,64.4,100,29.91,7.0,ENE,10.4,-,0.72,Rain,Rain,70,2013-07-22 09:55:00
6:15 AM,64.4,64.4,100,29.92,4.0,NE,5.8,10.4,0.06,Rain,Heavy Rain,40,2013-07-22 10:15:00
6:35 AM,64.4,64.4,100,29.92,3.0,NNE,5.8,-,0.21,Rain,Heavy Rain,30,2013-07-22 10:35:00
6:55 AM,64.4,64.4,100,29.92,4.0,ENE,10.4,-,0.29,Rain,Heavy Rain,70,2013-07-22 10:55:00
7:15 AM,64.4,64.4,100,29.91,5.0,ENE,6.9,-,0.02,Rain,Rain,70,2013-07-22 11:15:00
7:35 AM,64.4,64.4,100,29.91,5.0,East,8.1,-,0.05,Rain,Light Rain,80,2013-07-22 11:35:00
7:55 AM,64.4,64.4,100,29.90,7.0,East,8.1,-,0.05,Rain,Light Rain,80,2013-07-22 11:55:00
8:15 AM,64.4,64.4,100,29.90,7.0,East,5.8,-,N/A,,Light Drizzle,90,2013-07-22 12:15:00
8:35 AM,66.2,64.4,94,29.90,7.0,ESE,4.6,-,0.01,Rain,Rain,120,2013-07-22 12:35:00
8:55 AM,64.4,64.4,100,29.90,7.0,SE,5.8,-,0.01,,Light Drizzle,130,2013-07-22 12:55:00
9:35 AM,66.2,64.4,94,29.90,5.0,SE,3.5,-,N/A,,Overcast,140,2013-07-22 13:35:00
9:55 AM,66.2,64.4,94,29.89,7.0,ESE,3.5,-,N/A,,Mostly Cloudy,120,2013-07-22 13:55:00
10:55 AM,68.0,66.2,94,29.88,7.0,East,3.5,-,N/A,,Light Drizzle,100,2013-07-22 14:55:00
11:15 AM,68.0,66.2,94,29.88,10.0,East,5.8,-,N/A,,Mostly Cloudy,90,2013-07-22 15:15:00
11:35 AM,68.0,66.2,94,29.89,10.0,ENE,4.6,-,N/A,,Overcast,60,2013-07-22 15:35:00
11:55 AM,69.8,68.0,94,29.89,10.0,ENE,5.8,-,N/A,,Mostly Cloudy,70,2013-07-22 15:55:00
12:15 PM,71.6,68.0,88,29.89,10.0,SE,6.9,-,N/A,,Mostly Cloudy,130,2013-07-22 16:15:00
12:35 PM,73.4,68.0,83,29.89,10.0,East,5.8,-,N/A,,Mostly Cloudy,100,2013-07-22 16:35:00
12:55 PM,75.2,68.0,78,29.89,10.0,ESE,6.9,-,N/A,,Scattered Clouds,120,2013-07-22 16:55:00
1:15 PM,73.4,66.2,78,29.88,10.0,SSE,5.8,-,N/A,,Scattered Clouds,150,2013-07-22 17:15:00
1:35 PM,75.2,68.0,78,29.88,10.0,SE,3.5,-,N/A,,Mostly Cloudy,130,2013-07-22 17:35:00
1:55 PM,75.2,68.0,78,29.87,10.0,SE,5.8,-,N/A,,Overcast,130,2013-07-22 17:55:00
2:15 PM,77.0,68.0,74,29.87,10.0,East,5.8,-,N/A,,Mostly Cloudy,100,2013-07-22 18:15:00
2:35 PM,75.2,68.0,78,29.86,10.0,SE,3.5,-,N/A,,Overcast,130,2013-07-22 18:35:00
2:55 PM,77.0,64.4,65,29.86,10.0,East,3.5,-,N/A,,Scattered Clouds,90,2013-07-22 18:55:00
3:15 PM,78.8,66.2,65,29.85,10.0,Calm,Calm,-,N/A,,Clear,0,2013-07-22 19:15:00
3:35 PM,78.8,64.4,61,29.85,10.0,Calm,Calm,-,N/A,,Mostly Cloudy,0,2013-07-22 19:35:00
3:55 PM,77.0,66.2,69,29.85,10.0,Calm,Calm,-,N/A,,Overcast,0,2013-07-22 19:55:00
4:15 PM,77.0,64.4,65,29.84,10.0,Calm,Calm,-,N/A,,Overcast,0,2013-07-22 20:15:00
4:35 PM,77.0,64.4,65,29.83,10.0,Calm,Calm,-,N/A,,Overcast,0,2013-07-22 20:35:00
4:55 PM,77.0,66.2,69,29.83,10.0,Calm,Calm,-,N/A,,Mostly Cloudy,0,2013-07-22 20:55:00
5:15 PM,78.8,64.4,61,29.83,10.0,NW,3.5,-,N/A,,Scattered Clouds,320,2013-07-22 21:15:00
5:35 PM,78.8,64.4,61,29.82,10.0,Calm,Calm,-,N/A,,Clear,0,2013-07-22 21:35:00
5:55 PM,80.6,64.4,58,29.81,10.0,ENE,3.5,-,N/A,,Clear,70,2013-07-22 21:55:00
6:15 PM,78.8,64.4,61,29.82,10.0,Calm,Calm,-,N/A,,Clear,0,2013-07-22 22:15:00
6:35 PM,78.8,64.4,61,29.81,10.0,Calm,Calm,-,N/A,,Clear,0,2013-07-22 22:35:00
6:55 PM,78.8,64.4,61,29.81,10.0,Calm,Calm,-,N/A,,Clear,0,2013-07-22 22:55:00
7:15 PM,78.8,64.4,61,29.81,10.0,Calm,Calm,-,N/A,,Clear,0,2013-07-22 23:15:00
7:35 PM,78.8,64.4,61,29.80,10.0,Calm,Calm,-,N/A,,Clear,0,2013-07-22 23:35:00
7:55 PM,78.8,64.4,61,29.80,10.0,Calm,Calm,-,N/A,,Clear,0,2013-07-22 23:55:00
8:15 PM,78.8,66.2,65,29.80,10.0,Calm,Calm,-,N/A,,Clear,0,2013-07-23 00:15:00
8:35 PM,75.2,66.2,73,29.80,10.0,Calm,Calm,-,N/A,,Clear,0,2013-07-23 00:35:00
8:55 PM,75.2,66.2,73,29.81,10.0,Calm,Calm,-,N/A,,Clear,0,2013-07-23 00:55:00
9:15 PM,73.4,68.0,83,29.81,10.0,Calm,Calm,-,N/A,,Clear,0,2013-07-23 01:15:00
9:35 PM,71.6,68.0,88,29.81,10.0,Calm,Calm,-,N/A,,Clear,0,2013-07-23 01:35:00
9:55 PM,69.8,68.0,94,29.82,10.0,Calm,Calm,-,N/A,,Clear,0,2013-07-23 01:55:00
10:15 PM,69.8,68.0,94,29.82,10.0,Calm,Calm,-,N/A,,Clear,0,2013-07-23 02:15:00
10:35 PM,68.0,68.0,100,29.82,10.0,Calm,Calm,-,N/A,,Clear,0,2013-07-23 02:35:00
10:55 PM,68.0,66.2,94,29.82,10.0,Calm,Calm,-,N/A,,Clear,0,2013-07-23 02:55:00
11:15 PM,68.0,68.0,100,29.83,10.0,Calm,Calm,-,N/A,,Clear,0,2013-07-23 03:15:00
11:35 PM,68.0,68.0,100,29.82,10.0,Calm,Calm,-,N/A,,Clear,0,2013-07-23 03:35:00
11:55 PM,68.0,66.2,94,29.83,7.0,Calm,Calm,-,N/A,,Clear,0,2013-07-23 03:55:00